Location: Chèvreville
(49.1099°N, 2.8495°E)
Time: 14:04:17
(UTC+00:00)

SO-50 - Pass Details

Date: 07 December 2023
Orbit: 608 x 661 km, 64.6° (Epoch: 28 February)

Event Time Altitude Azimuth Distance (km) Brightness Sun altitude
Exits shadow 04:02:38 14° 28° (NNE) 1,790 ? -32.6°
Drops below altitude 10° 04:03:21 10° 31° (NNE) 2,048 ? -32.5°
Sets 04:05:43 0° 38° (NE) 2,951 ? -32.1°
